﻿測定場所 (Monitoring sites),日付 (Measurement date),時間 (Measurement time),線量率 最大値 (max) μGy/h,線量率 最小値 (min) μGy/h,線量率 平均値 (average) μGy/h,
足立 (Adachi),2015-05-17,23:01～24:00,0.0436,0.0371,0.0405,
足立 (Adachi),2015-05-17,22:01～23:00,0.0434,0.0375,0.0403,
足立 (Adachi),2015-05-17,21:01～22:00,0.0427,0.0381,0.0406,
足立 (Adachi),2015-05-17,20:01～21:00,0.0439,0.0377,0.0405,
足立 (Adachi),2015-05-17,19:01～20:00,0.0440,0.0372,0.0403,
足立 (Adachi),2015-05-17,18:01～19:00,0.0432,0.0374,0.0409,
足立 (Adachi),2015-05-17,17:01～18:00,0.0428,0.0379,0.0404,
足立 (Adachi),2015-05-17,16:01～17:00,0.0447,0.0372,0.0405,
足立 (Adachi),2015-05-17,15:01～16:00,0.0438,0.0376,0.0405,
足立 (Adachi),2015-05-17,14:01～15:00,0.0429,0.0367,0.0401,
足立 (Adachi),2015-05-17,13:01～14:00,0.0436,0.0370,0.0400,
足立 (Adachi),2015-05-17,12:01～13:00,0.0438,0.0369,0.0401,
足立 (Adachi),2015-05-17,11:01～12:00,0.0427,0.0372,0.0401,
足立 (Adachi),2015-05-17,10:01～11:00,0.0438,0.0366,0.0400,
足立 (Adachi),2015-05-17,09:01～10:00,0.0435,0.0369,0.0400,
足立 (Adachi),2015-05-17,08:01～09:00,0.0439,0.0373,0.0404,
足立 (Adachi),2015-05-17,07:01～08:00,0.0439,0.0368,0.0402,
足立 (Adachi),2015-05-17,06:01～07:00,0.0432,0.0367,0.0401,
足立 (Adachi),2015-05-17,05:01～06:00,0.0430,0.0375,0.0404,
足立 (Adachi),2015-05-17,04:01～05:00,0.0430,0.0371,0.0400,
足立 (Adachi),2015-05-17,03:01～04:00,0.0440,0.0369,0.0401,
足立 (Adachi),2015-05-17,02:01～03:00,0.0429,0.0366,0.0402,
足立 (Adachi),2015-05-17,01:01～02:00,0.0427,0.0365,0.0400,
足立 (Adachi),2015-05-17,00:01～01:00,0.0438,0.0380,0.0401,
足立 (Adachi),2015-05-16,23:01～24:00,0.0436,0.0368,0.0400,
足立 (Adachi),2015-05-16,22:01～23:00,0.0430,0.0366,0.0400,
足立 (Adachi),2015-05-16,21:01～22:00,0.0425,0.0365,0.0401,
足立 (Adachi),2015-05-16,20:01～21:00,0.0424,0.0371,0.0401,
足立 (Adachi),2015-05-16,19:01～20:00,0.0432,0.0370,0.0403,
足立 (Adachi),2015-05-16,18:01～19:00,0.0425,0.0366,0.0401,
足立 (Adachi),2015-05-16,17:01～18:00,0.0433,0.0370,0.0404,
足立 (Adachi),2015-05-16,16:01～17:00,0.0431,0.0373,0.0404,
足立 (Adachi),2015-05-16,15:01～16:00,0.0436,0.0370,0.0400,
足立 (Adachi),2015-05-16,14:01～15:00,0.0434,0.0371,0.0402,
足立 (Adachi),2015-05-16,13:01～14:00,0.0436,0.0364,0.0406,
足立 (Adachi),2015-05-16,12:01～13:00,0.0438,0.0373,0.0408,
足立 (Adachi),2015-05-16,11:01～12:00,0.0441,0.0383,0.0415,
足立 (Adachi),2015-05-16,10:01～11:00,0.0467,0.0407,0.0433,
足立 (Adachi),2015-05-16,09:01～10:00,0.0501,0.0416,0.0461,
足立 (Adachi),2015-05-16,08:01～09:00,0.0482,0.0406,0.0445,
足立 (Adachi),2015-05-16,07:01～08:00,0.0501,0.0424,0.0473,
足立 (Adachi),2015-05-16,06:01～07:00,0.0532,0.0450,0.0495,
足立 (Adachi),2015-05-16,05:01～06:00,0.0492,0.0400,0.0449,
足立 (Adachi),2015-05-16,04:01～05:00,0.0467,0.0384,0.0428,
足立 (Adachi),2015-05-16,03:01～04:00,0.0410,0.0350,0.0377,
足立 (Adachi),2015-05-16,02:01～03:00,0.0395,0.0351,0.0372,
足立 (Adachi),2015-05-16,01:01～02:00,0.0408,0.0353,0.0375,
足立 (Adachi),2015-05-16,00:01～01:00,0.0412,0.0354,0.0373,
足立 (Adachi),2015-05-15,23:01～24:00,0.0402,0.0353,0.0372,
足立 (Adachi),2015-05-15,22:01～23:00,0.0401,0.0355,0.0374,
足立 (Adachi),2015-05-15,21:01～22:00,0.0408,0.0355,0.0370,
足立 (Adachi),2015-05-15,20:01～21:00,0.0401,0.0354,0.0375,
足立 (Adachi),2015-05-15,19:01～20:00,0.0395,0.0352,0.0372,
足立 (Adachi),2015-05-15,18:01～19:00,0.0399,0.0354,0.0371,
足立 (Adachi),2015-05-15,17:01～18:00,0.0397,0.0349,0.0374,
足立 (Adachi),2015-05-15,16:01～17:00,0.0421,0.0367,0.0399,
足立 (Adachi),2015-05-15,15:01～16:00,0.0441,0.0372,0.0403,
足立 (Adachi),2015-05-15,14:01～15:00,0.0436,0.0371,0.0403,
足立 (Adachi),2015-05-15,13:01～14:00,0.0437,0.0371,0.0407,
足立 (Adachi),2015-05-15,12:01～13:00,0.0434,0.0370,0.0404,
足立 (Adachi),2015-05-15,11:01～12:00,0.0428,0.0368,0.0400,
足立 (Adachi),2015-05-15,10:01～11:00,0.0426,0.0364,0.0398,
足立 (Adachi),2015-05-15,09:01～10:00,0.0430,0.0365,0.0397,
足立 (Adachi),2015-05-15,08:01～09:00,0.0423,0.0366,0.0395,
足立 (Adachi),2015-05-15,07:01～08:00,0.0424,0.0370,0.0400,
足立 (Adachi),2015-05-15,06:01～07:00,0.0441,0.0363,0.0397,
足立 (Adachi),2015-05-15,05:01～06:00,0.0425,0.0363,0.0396,
足立 (Adachi),2015-05-15,04:01～05:00,0.0444,0.0370,0.0401,
足立 (Adachi),2015-05-15,03:01～04:00,0.0428,0.0368,0.0398,
足立 (Adachi),2015-05-15,02:01～03:00,0.0436,0.0377,0.0404,
足立 (Adachi),2015-05-15,01:01～02:00,0.0432,0.0377,0.0405,
足立 (Adachi),2015-05-15,00:01～01:00,0.0441,0.0372,0.0405,
足立 (Adachi),2015-05-14,23:01～24:00,0.0433,0.0368,0.0407,
足立 (Adachi),2015-05-14,22:01～23:00,0.0436,0.0373,0.0402,
足立 (Adachi),2015-05-14,21:01～22:00,0.0439,0.0372,0.0402,
足立 (Adachi),2015-05-14,20:01～21:00,0.0421,0.0374,0.0403,
足立 (Adachi),2015-05-14,19:01～20:00,0.0431,0.0370,0.0400,
足立 (Adachi),2015-05-14,18:01～19:00,0.0425,0.0368,0.0397,
足立 (Adachi),2015-05-14,17:01～18:00,0.0434,0.0371,0.0403,
足立 (Adachi),2015-05-14,16:01～17:00,0.0449,0.0381,0.0406,
足立 (Adachi),2015-05-14,15:01～16:00,0.0565,0.0370,0.0407,
足立 (Adachi),2015-05-14,14:01～15:00,0.0425,0.0366,0.0401,
足立 (Adachi),2015-05-14,13:01～14:00,0.0455,0.0367,0.0404,
足立 (Adachi),2015-05-14,12:01～13:00,0.0426,0.0370,0.0403,
足立 (Adachi),2015-05-14,11:01～12:00,0.0438,0.0371,0.0399,
足立 (Adachi),2015-05-14,10:01～11:00,0.0441,0.0377,0.0403,
足立 (Adachi),2015-05-14,09:01～10:00,0.0426,0.0371,0.0398,
足立 (Adachi),2015-05-14,08:01～09:00,0.0429,0.0369,0.0398,
足立 (Adachi),2015-05-14,07:01～08:00,0.0438,0.0368,0.0399,
足立 (Adachi),2015-05-14,06:01～07:00,0.0425,0.0363,0.0388,
足立 (Adachi),2015-05-14,05:01～06:00,0.0430,0.0366,0.0397,
足立 (Adachi),2015-05-14,04:01～05:00,0.0422,0.0356,0.0385,
足立 (Adachi),2015-05-14,03:01～04:00,0.0424,0.0368,0.0399,
足立 (Adachi),2015-05-14,02:01～03:00,0.0441,0.0370,0.0402,
足立 (Adachi),2015-05-14,01:01～02:00,0.0441,0.0374,0.0404,
足立 (Adachi),2015-05-14,00:01～01:00,0.0426,0.0373,0.0403,
足立 (Adachi),2015-05-13,23:01～24:00,0.0436,0.0371,0.0402,
足立 (Adachi),2015-05-13,22:01～23:00,0.0428,0.0370,0.0398,
足立 (Adachi),2015-05-13,21:01～22:00,0.0433,0.0370,0.0401,
足立 (Adachi),2015-05-13,20:01～21:00,0.0434,0.0370,0.0402,
足立 (Adachi),2015-05-13,19:01～20:00,0.0424,0.0368,0.0396,
足立 (Adachi),2015-05-13,18:01～19:00,0.0426,0.0368,0.0400,
足立 (Adachi),2015-05-13,17:01～18:00,0.0421,0.0368,0.0396,
足立 (Adachi),2015-05-13,16:01～17:00,0.0429,0.0367,0.0398,
足立 (Adachi),2015-05-13,15:01～16:00,0.0428,0.0365,0.0392,
足立 (Adachi),2015-05-13,14:01～15:00,0.0420,0.0370,0.0394,
足立 (Adachi),2015-05-13,13:01～14:00,0.0423,0.0366,0.0395,
足立 (Adachi),2015-05-13,12:01～13:00,0.0434,0.0366,0.0394,
足立 (Adachi),2015-05-13,11:01～12:00,0.0433,0.0362,0.0392,
足立 (Adachi),2015-05-13,10:01～11:00,0.0431,0.0366,0.0394,
足立 (Adachi),2015-05-13,09:01～10:00,0.0444,0.0368,0.0394,
足立 (Adachi),2015-05-13,08:01～09:00,0.0427,0.0364,0.0390,
足立 (Adachi),2015-05-13,07:01～08:00,0.0420,0.0369,0.0390,
足立 (Adachi),2015-05-13,06:01～07:00,0.0421,0.0362,0.0384,
足立 (Adachi),2015-05-13,05:01～06:00,0.0421,0.0363,0.0388,
足立 (Adachi),2015-05-13,04:01～05:00,0.0418,0.0355,0.0385,
足立 (Adachi),2015-05-13,03:01～04:00,0.0422,0.0363,0.0385,
足立 (Adachi),2015-05-13,02:01～03:00,0.0418,0.0364,0.0390,
足立 (Adachi),2015-05-13,01:01～02:00,0.0446,0.0365,0.0395,
足立 (Adachi),2015-05-13,00:01～01:00,0.0454,0.0387,0.0417,
足立 (Adachi),2015-05-12,23:01～24:00,0.0499,0.0407,0.0461,
足立 (Adachi),2015-05-12,22:01～23:00,0.0522,0.0429,0.0464,
足立 (Adachi),2015-05-12,21:01～22:00,0.0513,0.0434,0.0470,
足立 (Adachi),2015-05-12,20:01～21:00,0.0484,0.0406,0.0441,
足立 (Adachi),2015-05-12,19:01～20:00,0.0462,0.0386,0.0420,
足立 (Adachi),2015-05-12,18:01～19:00,0.0452,0.0389,0.0420,
足立 (Adachi),2015-05-12,17:01～18:00,0.0457,0.0385,0.0421,
足立 (Adachi),2015-05-12,16:01～17:00,0.0446,0.0394,0.0418,
足立 (Adachi),2015-05-12,15:01～16:00,0.0462,0.0389,0.0426,
足立 (Adachi),2015-05-12,14:01～15:00,0.0453,0.0389,0.0418,
足立 (Adachi),2015-05-12,13:01～14:00,0.0435,0.0394,0.0415,
足立 (Adachi),2015-05-12,12:01～13:00,0.0461,0.0395,0.0418,
足立 (Adachi),2015-05-12,11:01～12:00,0.0445,0.0366,0.0418,
足立 (Adachi),2015-05-12,10:01～11:00,0.0445,0.0392,0.0421,
足立 (Adachi),2015-05-12,09:01～10:00,0.0456,0.0385,0.0420,
足立 (Adachi),2015-05-12,08:01～09:00,0.0454,0.0393,0.0420,
足立 (Adachi),2015-05-12,07:01～08:00,0.0446,0.0385,0.0420,
足立 (Adachi),2015-05-12,06:01～07:00,0.0440,0.0383,0.0414,
足立 (Adachi),2015-05-12,05:01～06:00,0.0451,0.0389,0.0422,
足立 (Adachi),2015-05-12,04:01～05:00,0.0450,0.0382,0.0421,
足立 (Adachi),2015-05-12,03:01～04:00,0.0465,0.0385,0.0420,
足立 (Adachi),2015-05-12,02:01～03:00,0.0449,0.0379,0.0425,
足立 (Adachi),2015-05-12,01:01～02:00,0.0444,0.0386,0.0420,
足立 (Adachi),2015-05-12,00:01～01:00,0.0448,0.0396,0.0422,
足立 (Adachi),2015-05-11,23:01～24:00,0.0464,0.0394,0.0420,
足立 (Adachi),2015-05-11,22:01～23:00,0.0440,0.0396,0.0420,
足立 (Adachi),2015-05-11,21:01～22:00,0.0449,0.0389,0.0418,
足立 (Adachi),2015-05-11,20:01～21:00,0.0444,0.0372,0.0420,
足立 (Adachi),2015-05-11,19:01～20:00,0.0452,0.0384,0.0419,
足立 (Adachi),2015-05-11,18:01～19:00,0.0453,0.0390,0.0418,
足立 (Adachi),2015-05-11,17:01～18:00,0.0457,0.0382,0.0418,
足立 (Adachi),2015-05-11,16:01～17:00,0.0447,0.0400,0.0422,
足立 (Adachi),2015-05-11,15:01～16:00,0.0447,0.0386,0.0416,
足立 (Adachi),2015-05-11,14:01～15:00,0.0457,0.0386,0.0418,
足立 (Adachi),2015-05-11,13:01～14:00,0.0447,0.0390,0.0418,
足立 (Adachi),2015-05-11,12:01～13:00,0.0450,0.0382,0.0417,
足立 (Adachi),2015-05-11,11:01～12:00,0.0446,0.0381,0.0420,
足立 (Adachi),2015-05-11,10:01～11:00,0.0451,0.0390,0.0421,
足立 (Adachi),2015-05-11,09:01～10:00,0.0454,0.0390,0.0425,
足立 (Adachi),2015-05-11,08:01～09:00,0.0474,0.0384,0.0420,
足立 (Adachi),2015-05-11,07:01～08:00,0.0441,0.0382,0.0412,
足立 (Adachi),2015-05-11,06:01～07:00,0.0449,0.0379,0.0409,
足立 (Adachi),2015-05-11,05:01～06:00,0.0443,0.0377,0.0414,
足立 (Adachi),2015-05-11,04:01～05:00,0.0449,0.0389,0.0420,
足立 (Adachi),2015-05-11,03:01～04:00,0.0461,0.0398,0.0424,
足立 (Adachi),2015-05-11,02:01～03:00,0.0450,0.0390,0.0424,
足立 (Adachi),2015-05-11,01:01～02:00,0.0470,0.0396,0.0425,
足立 (Adachi),2015-05-11,00:01～01:00,0.0470,0.0383,0.0426,
